EW5655 Weather Reports


Display with metric or nautical units.
time (UTC)temp
F
wind
direction
speed
MPH
gust
MPH
rain 1hr
in
rain 24hr
in
rain mn
in
humidity
%
barometer
mb
20260508062057 61 37 0.0 1.0 0.00 0.00 0.00 33 1015.2
20260508061557 60 37 0.0 2.0 0.00 0.00 0.00 32 1015.2
20260508061057 60 37 0.0 2.0 0.00 0.00 0.00 33 1015.2
20260508060555 60 37 0.0 2.0 0.00 0.00 0.00 34 1015.2
20260508060053 61 37 0.0 2.0 0.00 0.00 0.00 33 1015.1
20260508055557 62 37 0.0 2.0 0.00 0.00 0.00 31 1015.1
20260508055053 62 37 0.0 1.0 0.00 0.00 0.00 30 1015.0
20260508054607 63 37 0.0 2.0 0.00 0.00 0.00 30 1014.9
20260508054051 63 37 0.0 2.0 0.00 0.00 0.00 29 1015.0
20260508053552 63 37 0.0 2.0 0.00 0.00 0.00 29 1015.0
20260508053054 63 37 1.0 2.0 0.00 0.00 0.00 28 1015.0
20260508052553 63 38 0.0 2.0 0.00 0.00 0.00 29 1014.9
20260508052053 63 38 0.0 2.0 0.00 0.00 0.00 29 1014.9
20260508051552 63 38 0.0 4.0 0.00 0.00 0.00 30 1014.9
20260508051052 63 38 0.0 4.0 0.00 0.00 0.00 31 1015.0
20260508050553 63 38 0.0 1.0 0.00 0.00 0.00 30 1015.1
20260508050054 63 38 0.0 1.0 0.00 0.00 0.00 30 1015.1
20260508045550 63 38 0.0 1.0 0.00 0.00 0.00 30 1015.1
20260508045050 64 38 0.0 2.0 0.00 0.00 0.00 28 1015.2
20260508044557 64 38 0.0 2.0 0.00 0.00 0.00 28 1015.2
20260508044050 64 38 0.0 1.0 0.00 0.00 0.00 29 1015.2
20260508043550 64 38 0.0 1.0 0.00 0.00 0.00 28 1015.2
20260508043050 64 38 0.0 1.0 0.00 0.00 0.00 29 1015.2
20260508042550 65 38 0.0 1.0 0.00 0.00 0.00 28 1015.2
20260508042049 65 38 0.0 2.0 0.00 0.00 0.00 26 1015.1
20260508041550 65 38 0.0 2.0 0.00 0.00 0.00 26 1015.1
20260508041050 65 38 0.0 4.0 0.00 0.00 0.00 27 1015.1
20260508040550 66 38 1.0 4.0 0.00 0.00 0.00 25 1015.0
20260508040050 65 38 1.0 2.0 0.00 0.00 0.00 26 1015.0
20260508035549 65 38 0.0 4.0 0.00 0.00 0.00 26 1014.9
20260508035048 66 38 1.0 4.0 0.00 0.00 0.00 26 1014.9
20260508034549 66 38 1.0 3.0 0.00 0.00 0.00 25 1014.9
20260508034048 66 38 1.0 4.0 0.00 0.00 0.00 26 1014.8
20260508033110 67 25 0.0 4.0 0.00 0.00 0.00 26 1014.7
20260508032546 67 25 1.0 4.0 0.00 0.00 0.00 27 1014.7
20260508032048 67 281 0.0 2.0 0.00 0.00 0.00 27 1014.5
20260508031545 67 281 0.0 1.0 0.00 0.00 0.00 26 1014.4
20260508031049 68 281 0.0 1.0 0.00 0.00 0.00 26 1014.4
20260508030545 68 281 0.0 1.0 0.00 0.00 0.00 27 1014.4
20260508030053 68 281 0.0 1.0 0.00 0.00 0.00 27 1014.4
20260508025544 69 281 0.0 2.0 0.00 0.00 0.00 24 1014.3
20260508025043 70 281 0.0 2.0 0.00 0.00 0.00 22 1014.2
20260508024559 70 281 0.0 2.0 0.00 0.00 0.00 25 1014.2
20260508024046 70 281 0.0 1.0 0.00 0.00 0.00 22 1014.2
20260508023544 70 281 0.0 0.0 0.00 0.00 0.00 22 1014.2
20260508023043 70 281 0.0 0.0 0.00 0.00 0.00 23 1014.2
20260508022544 71 281 0.0 0.0 0.00 0.00 0.00 22 1014.1
20260508022043 71 281 0.0 1.0 0.00 0.00 0.00 22 1014.0
20260508021544 72 281 0.0 1.0 0.00 0.00 0.00 22 1014.0
20260508021044 72 281 0.0 1.0 0.00 0.00 0.00 22 1013.9
20260508020543 72 281 0.0 2.0 0.00 0.00 0.00 22 1013.9
20260508015542 74 281 0.0 2.0 0.00 0.00 0.00 19 1013.9
20260508015041 74 281 0.0 2.0 0.00 0.00 0.00 23 1013.9
20260508014545 74 281 0.0 2.0 0.00 0.00 0.00 20 1013.8
20260508014040 75 281 0.0 2.0 0.00 0.00 0.00 19 1013.8
20260508013541 75 281 1.0 2.0 0.00 0.00 0.00 17 1013.8
20260508013041 75 281 0.0 2.0 0.00 0.00 0.00 18 1013.7
20260508012541 76 281 0.0 2.0 0.00 0.00 0.00 16 1013.7
20260508012041 76 281 0.0 2.0 0.00 0.00 0.00 16 1013.7
20260508011544 77 281 0.0 4.0 0.00 0.00 0.00 14 1013.7
20260508011045 77 281 2.0 6.0 0.00 0.00 0.00 14 1013.8
20260508010539 77 245 2.0 5.0 0.00 0.00 0.00 15 1013.8
20260508010039 78 300 2.0 5.0 0.00 0.00 0.00 14 1013.8
20260508005538 78 252 2.0 6.0 0.00 0.00 0.00 14 1013.9
20260508005039 78 264 3.0 6.0 0.00 0.00 0.00 14 1013.9
20260508004538 78 248 2.0 8.0 0.00 0.00 0.00 14 1013.9
20260508004038 79 198 4.0 8.0 0.00 0.00 0.00 14 1013.9
20260508003537 79 265 1.0 6.0 0.00 0.00 0.00 14 1013.9
20260508003037 79 248 2.0 8.0 0.00 0.00 0.00 14 1013.9
20260508002536 79 238 3.0 10.0 0.00 0.00 0.00 14 1013.9
20260508002036 79 178 6.0 12.0 0.00 0.00 0.00 13 1014.0
20260508001547 79 194 6.0 12.0 0.00 0.00 0.00 14 1013.9
20260508001036 79 127 1.0 11.0 0.00 0.00 0.00 15 1013.9
20260508000535 79 217 6.0 11.0 0.00 0.00 0.00 14 1014.0
20260508000034 80 192 4.0 9.0 0.00 0.00 0.00 14 1014.0
20260507235534 80 175 5.0 10.0 0.00 0.00 0.00 15 1014.1
20260507235034 80 170 5.0 12.0 0.00 0.00 0.00 14 1014.0
20260507234533 80 195 5.0 12.0 0.00 0.00 0.00 14 1014.1
20260507234032 80 171 2.0 8.0 0.00 0.00 0.00 14 1014.1
20260507233531 80 211 4.0 9.0 0.00 0.00 0.00 14 1014.1
20260507233034 80 215 5.0 9.0 0.00 0.00 0.00 14 1014.2
20260507232531 80 247 6.0 9.0 0.00 0.00 0.00 14 1014.1
20260507232030 81 237 4.0 9.0 0.00 0.00 0.00 14 1014.2
20260507231529 81 210 3.0 8.0 0.00 0.00 0.00 15 1014.1
20260507231029 81 266 2.0 12.0 0.00 0.00 0.00 14 1014.2
20260507230529 81 261 2.0 6.0 0.00 0.00 0.00 13 1014.3
20260507230032 81 302 2.0 8.0 0.00 0.00 0.00 14 1014.3
20260507225528 80 169 4.0 8.0 0.00 0.00 0.00 13 1014.4
20260507225027 81 138 4.0 9.0 0.00 0.00 0.00 13 1014.3
20260507224531 80 161 4.0 12.0 0.00 0.00 0.00 13 1014.4
20260507224027 81 202 6.0 12.0 0.00 0.00 0.00 14 1014.4
20260507223525 81 137 6.0 13.0 0.00 0.00 0.00 13 1014.5
20260507223025 81 194 7.0 13.0 0.00 0.00 0.00 14 1014.4
20260507222527 81 152 7.0 11.0 0.00 0.00 0.00 14 1014.5
20260507222023 80 116 5.0 13.0 0.00 0.00 0.00 14 1014.5
20260507221525 80 196 6.0 13.0 0.00 0.00 0.00 14 1014.7
20260507221022 81 212 5.0 12.0 0.00 0.00 0.00 15 1014.6
20260507220521 81 220 6.0 12.0 0.00 0.00 0.00 14 1014.7
20260507220021 81 170 6.0 12.0 0.00 0.00 0.00 14 1014.7
20260507215520 81 193 7.0 10.0 0.00 0.00 0.00 14 1014.8
20260507215020 82 211 4.0 8.0 0.00 0.00 0.00 14 1014.8
20260507214519 82 101 4.0 8.0 0.00 0.00 0.00 15 1014.8
20260507214019 81 300 4.0 8.0 0.00 0.00 0.00 15 1014.9
20260507213518 81 207 4.0 11.0 0.00 0.00 0.00 14 1015.0
20260507213020 81 215 5.0 11.0 0.00 0.00 0.00 15 1015.0
20260507212519 81 261 4.0 11.0 0.00 0.00 0.00 13 1015.0
20260507212022 82 213 6.0 11.0 0.00 0.00 0.00 15 1015.0
20260507211529 81 180 2.0 8.0 0.00 0.00 0.00 16 1015.1
20260507211016 81 166 4.0 7.0 0.00 0.00 0.00 15 1015.1
20260507210514 82 69 2.0 7.0 0.00 0.00 0.00 16 1015.2
20260507210014 79 63 1.0 5.0 0.00 0.00 0.00 16 1015.2
20260507205512 79 174 1.0 4.0 0.00 0.00 0.00 16 1015.3
20260507205014 80 348 1.0 6.0 0.00 0.00 0.00 16 1015.3
20260507204511 80 337 2.0 9.0 0.00 0.00 0.00 16 1015.4
20260507204010 80 194 5.0 9.0 0.00 0.00 0.00 16 1015.5
20260507203510 81 265 5.0 8.0 0.00 0.00 0.00 17 1015.5
20260507203008 80 323 3.0 8.0 0.00 0.00 0.00 17 1015.5
20260507202507 80 264 4.0 8.0 0.00 0.00 0.00 17 1015.7
20260507202007 80 224 2.0 9.0 0.00 0.00 0.00 17 1015.8
20260507201506 80 178 5.0 10.0 0.00 0.00 0.00 18 1015.8
20260507201005 79 17 1.0 10.0 0.00 0.00 0.00 18 1015.9
20260507200504 79 133 2.0 10.0 0.00 0.00 0.00 18 1016.1
20260507200002 80 194 4.0 7.0 0.00 0.00 0.00 18 1016.1
20260507195501 79 167 2.0 8.0 0.00 0.00 0.00 18 1016.2
20260507195001 80 210 5.0 9.0 0.00 0.00 0.00 18 1016.2
20260507194613 79 130 4.0 9.0 0.00 0.00 0.00 18 1016.3
20260507194059 79 187 4.0 10.0 0.00 0.00 0.00 18 1016.4
20260507193600 79 272 5.0 10.0 0.00 0.00 0.00 19 1016.4
20260507193100 79 186 2.0 8.0 0.00 0.00 0.00 20 1016.5
20260507192556 78 148 3.0 11.0 0.00 0.00 0.00 18 1016.6
20260507192056 79 195 6.0 11.0 0.00 0.00 0.00 19 1016.6
20260507191602 78 123 6.0 10.0 0.00 0.00 0.00 19 1016.6
20260507191054 78 215 5.0 8.0 0.00 0.00 0.00 19 1016.8
20260507190553 77 169 2.0 10.0 0.00 0.00 0.00 19 1016.8
20260507190053 77 168 7.0 10.0 0.00 0.00 0.00 19 1016.9
20260507185552 77 148 3.0 8.0 0.00 0.00 0.00 20 1017.0
20260507185053 77 175 2.0 10.0 0.00 0.00 0.00 19 1017.0
20260507184550 77 163 5.0 10.0 0.00 0.00 0.00 20 1017.0
20260507184051 76 132 5.0 9.0 0.00 0.00 0.00 21 1017.1
20260507183549 77 184 3.0 6.0 0.00 0.00 0.00 22 1017.1
20260507183055 77 216 2.0 6.0 0.00 0.00 0.00 22 1017.2
20260507182548 77 56 2.0 8.0 0.00 0.00 0.00 22 1017.2
20260507182047 76 297 4.0 8.0 0.00 0.00 0.00 22 1017.3
20260507181547 76 203 3.0 7.0 0.00 0.00 0.00 24 1017.4
20260507181045 75 234 3.0 7.0 0.00 0.00 0.00 23 1017.4
20260507180547 75 221 2.0 7.0 0.00 0.00 0.00 23 1017.5
20260507180050 75 192 3.0 8.0 0.00 0.00 0.00 23 1017.5
20260507175541 75 191 3.0 8.0 0.00 0.00 0.00 24 1017.6
20260507175039 74 276 4.0 7.0 0.00 0.00 0.00 24 1017.7
20260507174538 74 217 3.0 7.0 0.00 0.00 0.00 24 1017.7
20260507174037 74 146 1.0 7.0 0.00 0.00 0.00 26 1017.8
20260507173538 74 176 3.0 7.0 0.00 0.00 0.00 26 1017.8
20260507173046 73 227 3.0 8.0 0.00 0.00 0.00 25 1017.9
20260507172532 73 189 2.0 6.0 0.00 0.00 0.00 25 1017.9
20260507172031 72 159 2.0 7.0 0.00 0.00 0.00 26 1017.9
20260507171533 72 191 4.0 7.0 0.00 0.00 0.00 26 1017.9
20260507171029 72 184 3.0 6.0 0.00 0.00 0.00 27 1018.0
20260507170530 71 263 4.0 6.0 0.00 0.00 0.00 26 1018.1
20260507170042 71 214 2.0 5.0 0.00 0.00 0.00 27 1018.2
20260507165524 70 235 1.0 5.0 0.00 0.00 0.00 29 1018.2
20260507165023 71 196 3.0 6.0 0.00 0.00 0.00 27 1018.2
20260507164523 70 234 3.0 6.0 0.00 0.00 0.00 27 1018.2
20260507164021 70 198 2.0 7.0 0.00 0.00 0.00 30 1018.2
20260507163520 69 177 2.0 7.0 0.00 0.00 0.00 29 1018.4
20260507163017 69 171 3.0 7.0 0.00 0.00 0.00 30 1018.4
20260507162517 69 276 3.0 8.0 0.00 0.00 0.00 29 1018.4
20260507162017 70 231 4.0 8.0 0.00 0.00 0.00 30 1018.5
20260507161514 69 41 2.0 6.0 0.00 0.00 0.00 27 1018.6
20260507161012 68 42 2.0 5.0 0.00 0.00 0.00 30 1018.7
20260507160512 67 17 1.0 5.0 0.00 0.00 0.00 30 1018.7
20260507160010 67 360 2.0 6.0 0.00 0.00 0.00 31 1018.8
20260507155509 66 7 0.0 6.0 0.00 0.00 0.00 31 1018.8
20260507155007 66 14 0.0 5.0 0.00 0.00 0.00 31 1018.9
20260507154507 66 72 2.0 7.0 0.00 0.00 0.00 33 1018.8
20260507154004 66 59 3.0 7.0 0.00 0.00 0.00 34 1018.8
20260507153504 64 38 0.0 6.0 0.00 0.00 0.00 34 1018.8
20260507153001 64 347 2.0 6.0 0.00 0.00 0.00 35 1018.9
20260507152601 63 316 3.0 6.0 0.00 0.00 0.00 35 1018.9
20260507152059 63 19 3.0 6.0 0.00 0.00 0.00 34 1018.9
20260507151558 63 45 1.0 6.0 0.00 0.00 0.00 36 1018.9
20260507151055 62 355 3.0 6.0 0.00 0.00 0.00 36 1018.9
20260507150555 62 55 3.0 6.0 0.00 0.00 0.00 38 1018.9
20260507150100 61 24 3.0 7.0 0.00 0.00 0.00 38 1018.9
20260507145551 61 41 3.0 8.0 0.00 0.00 0.00 38 1019.0
20260507145049 60 2 4.0 8.0 0.00 0.00 0.00 38 1018.9
20260507144548 60 35 2.0 8.0 0.00 0.00 0.00 40 1019.0
20260507144048 59 38 3.0 8.0 0.00 0.00 0.00 40 1019.1
20260507143546 59 39 3.0 8.0 0.00 0.00 0.00 41 1019.1
20260507143057 58 44 2.0 7.0 0.00 0.00 0.00 41 1019.0
20260507142543 58 33 2.0 7.0 0.00 0.00 0.00 41 1019.1
20260507142042 57 24 2.0 7.0 0.00 0.00 0.00 41 1019.1
20260507141542 57 15 2.0 6.0 0.00 0.00 0.00 41 1019.2
20260507141041 56 44 1.0 6.0 0.00 0.00 0.00 42 1019.2
20260507140541 56 33 1.0 7.0 0.00 0.00 0.00 42 1019.1
20260507140041 56 28 2.0 7.0 0.00 0.00 0.00 42 1019.2
20260507135544 56 32 1.0 7.0 0.00 0.00 0.00 43 1019.1
20260507135039 55 63 3.0 6.0 0.00 0.00 0.00 44 1019.1
20260507134539 55 55 3.0 6.0 0.00 0.00 0.00 44 1019.1
20260507134037 54 79 2.0 7.0 0.00 0.00 0.00 44 1019.0
20260507133537 54 49 3.0 7.0 0.00 0.00 0.00 44 1018.9
20260507133044 54 47 1.0 6.0 0.00 0.00 0.00 44 1018.8
20260507132535 54 44 2.0 7.0 0.00 0.00 0.00 44 1018.7
20260507132034 53 19 2.0 7.0 0.00 0.00 0.00 44 1018.6
20260507131540 53 3 2.0 7.0 0.00 0.00 0.00 44 1018.5
20260507131033 53 30 4.0 7.0 0.00 0.00 0.00 44 1018.5
20260507130532 52 15 4.0 8.0 0.00 0.00 0.00 44 1018.4
20260507130036 52 11 4.0 8.0 0.00 0.00 0.00 44 1018.4
20260507125530 52 24 2.0 8.0 0.00 0.00 0.00 43 1018.4
20260507125030 51 53 3.0 6.0 0.00 0.00 0.00 43 1018.4
20260507124530 51 19 1.0 7.0 0.00 0.00 0.00 42 1018.4
20260507124030 52 20 3.0 7.0 0.00 0.00 0.00 42 1018.4
20260507123528 51 8 3.0 6.0 0.00 0.00 0.00 42 1018.2
20260507123026 51 36 2.0 5.0 0.00 0.00 0.00 42 1018.2
20260507122526 51 30 2.0 5.0 0.00 0.00 0.00 41 1018.2
20260507122026 50 38 1.0 4.0 0.00 0.00 0.00 40 1018.2
20260507121526 50 36 2.0 6.0 0.00 0.00 0.00 39 1018.1
20260507121025 50 7 2.0 7.0 0.00 0.00 0.00 39 1018.1
20260507120523 50 31 3.0 7.0 0.00 0.00 0.00 39 1018.1
20260507120023 50 32 1.0 6.0 0.00 0.00 0.00 39 1018.1
20260507115526 50 38 2.0 5.0 0.00 0.00 0.00 38 1018.0
20260507115021 50 57 2.0 6.0 0.00 0.00 0.00 37 1017.9
20260507114521 50 47 3.0 6.0 0.00 0.00 0.00 36 1018.0
20260507114019 50 32 1.0 6.0 0.00 0.00 0.00 35 1017.9
20260507113519 50 48 1.0 5.0 0.00 0.00 0.00 34 1018.0
20260507113025 50 66 1.0 3.0 0.00 0.00 0.00 34 1017.9
20260507112519 50 56 0.0 5.0 0.00 0.00 0.00 32 1017.9
20260507112018 50 58 2.0 5.0 0.00 0.00 0.00 33 1017.9
20260507111518 50 49 1.0 5.0 0.00 0.00 0.00 32 1017.9
20260507111015 50 63 2.0 5.0 0.00 0.00 0.00 32 1018.0
20260507110514 51 65 2.0 6.0 0.00 0.00 0.00 31 1018.0
20260507110014 51 42 1.0 6.0 0.00 0.00 0.00 30 1017.9
20260507105511 52 46 0.0 3.0 0.00 0.00 0.00 30 1018.0
20260507105011 52 46 0.0 2.0 0.00 0.00 0.00 29 1017.8
20260507104510 52 46 0.0 2.0 0.00 0.00 0.00 29 1017.8
20260507104010 52 46 0.0 4.0 0.00 0.00 0.00 29 1017.8
20260507103509 52 46 1.0 4.0 0.00 0.00 0.00 28 1017.8
20260507103009 52 46 1.0 2.0 0.00 0.00 0.00 29 1017.7
20260507102508 53 46 0.0 5.0 0.00 0.00 0.00 28 1017.8
20260507102008 53 46 1.0 6.0 0.00 0.00 0.00 28 1017.8
20260507101507 53 58 2.0 6.0 0.00 0.00 0.00 28 1017.7
20260507101005 54 51 1.0 4.0 0.00 0.00 0.00 27 1017.6
20260507100506 54 49 0.0 7.0 0.00 0.00 0.00 26 1017.5
20260507100010 55 51 2.0 8.0 0.00 0.00 0.00 26 1017.5
20260507095506 56 7 4.0 8.0 0.00 0.00 0.00 25 1017.4
20260507095003 56 49 4.0 7.0 0.00 0.00 0.00 25 1017.4
20260507094502 56 38 3.0 8.0 0.00 0.00 0.00 24 1017.4
20260507094002 57 31 3.0 8.0 0.00 0.00 0.00 24 1017.3
20260507093501 57 11 4.0 9.0 0.00 0.00 0.00 23 1017.3
20260507093003 57 355 4.0 7.0 0.00 0.00 0.00 23 1017.3
20260507092502 57 17 1.0 6.0 0.00 0.00 0.00 23 1017.3
20260507092100 57 10 3.0 7.0 0.00 0.00 0.00 23 1017.3
20260507091600 56 3 3.0 7.0 0.00 0.00 0.00 24 1017.2
20260507091100 54 17 2.0 5.0 0.00 0.00 0.00 28 1017.3
20260507090600 54 16 0.0 1.0 0.00 0.00 0.00 30 1017.3
20260507090101 54 16 0.0 2.0 0.00 0.00 0.00 29 1017.3
20260507085556 55 16 0.0 2.0 0.00 0.00 0.00 27 1017.3
20260507085056 56 16 0.0 2.0 0.00 0.00 0.00 26 1017.3
20260507084605 56 15 0.0 4.0 0.00 0.00 0.00 25 1017.3
20260507084055 57 13 0.0 5.0 0.00 0.00 0.00 23 1017.3
20260507083557 58 13 2.0 6.0 0.00 0.00 0.00 22 1017.2
20260507083055 57 20 3.0 6.0 0.00 0.00 0.00 23 1017.2
20260507082555 58 36 2.0 7.0 0.00 0.00 0.00 23 1017.2
20260507082054 58 14 2.0 5.0 0.00 0.00 0.00 22 1017.2
20260507081558 57 22 1.0 3.0 0.00 0.00 0.00 23 1017.3
20260507081054 56 30 1.0 4.0 0.00 0.00 0.00 26 1017.3
20260507080553 57 30 1.0 5.0 0.00 0.00 0.00 25 1017.4
20260507080055 57 27 1.0 5.0 0.00 0.00 0.00 24 1017.2
20260507075557 57 14 2.0 6.0 0.00 0.00 0.00 23 1017.2
20260507075052 58 15 3.0 7.0 0.00 0.00 0.00 23 1017.2
20260507074552 58 14 3.0 7.0 0.00 0.00 0.00 22 1017.2
20260507074051 59 18 3.0 7.0 0.00 0.00 0.00 22 1017.2
20260507073549 58 6 3.0 7.0 0.00 0.00 0.00 22 1017.2
20260507073049 58 14 3.0 5.0 0.00 0.00 0.00 23 1017.4
20260507072548 57 26 1.0 3.0 0.00 0.00 0.00 23 1017.4
20260507072048 56 59 0.0 4.0 0.00 0.00 0.00 25 1017.4
20260507071549 56 59 0.0 2.0 0.00 0.00 0.00 24 1017.5
20260507071047 56 59 0.0 5.0 0.00 0.00 0.00 26 1017.5
20260507070547 56 59 0.0 5.0 0.00 0.00 0.00 27 1017.4
20260507070101 56 34 0.0 4.0 0.00 0.00 0.00 27 1017.4
20260507065545 56 33 0.0 2.0 0.00 0.00 0.00 27 1017.4
20260507065044 56 33 0.0 1.0 0.00 0.00 0.00 27 1017.4
20260507064551 56 33 0.0 5.0 0.00 0.00 0.00 26 1017.4
20260507064043 57 33 0.0 5.0 0.00 0.00 0.00 26 1017.4
20260507063542 58 21 0.0 4.0 0.00 0.00 0.00 24 1017.5
20260507063042 57 21 1.0 4.0 0.00 0.00 0.00 24 1017.4
20260507062545 57 22 0.0 4.0 0.00 0.00 0.00 26 1017.4